Location: ??????
(42.0089°N, 44.3281°E)
Time: 17:44:45
(UTC+00:00)

USA 267 - Pass Details

Date: 30 May 2022
Orbit: 1101 x 1106 km, 123.0° (Epoch: 28 June)

Event Time Altitude Azimuth Distance (km) Brightness Sun altitude
Rises 17:49:51 0° 58° (ENE) 3,922 6.0 -12.5°
Reaches altitude 10° 17:52:50 10° 45° (NE) 2,964 5.5 -12.9°
Maximum altitude 17:57:48 24° 355° (N) 2,109 5.4 -13.5°
Drops below altitude 10° 18:02:47 10° 305° (NW) 2,965 6.9 -14.1°
Sets 18:05:45 0° 292° (WNW) 3,924 7.4 -14.5°
